Time,TemperatureF,DewpointF,PressureIn,WindDirection,WindDirectionDegrees,WindSpeedMPH,WindSpeedGustMPH,Humidity,HourlyPrecipIn,Conditions,Clouds,dailyrainin,SoftwareType,DateUTC
2016-02-12 00:06:00,49.5,46.1,30.26,East,94,0.0,0.0,88,0.00,,,0.00,Wunderground v.1.15,2016-02-12 05:06:00,
2016-02-12 00:11:00,49.9,46.8,30.27,East,94,0.0,0.0,89,0.00,,,0.00,Wunderground v.1.15,2016-02-12 05:11:00,
2016-02-12 00:17:00,50.3,47.5,30.26,NNE,29,0.0,0.0,90,0.00,,,0.00,Wunderground v.1.15,2016-02-12 05:17:00,
2016-02-12 00:29:00,50.8,47.7,30.26,NNE,30,0.0,0.0,89,0.00,,,0.00,Wunderground v.1.15,2016-02-12 05:29:00,
2016-02-12 00:34:00,50.8,47.7,30.26,NNE,29,0.0,0.0,89,0.00,,,0.00,Wunderground v.1.15,2016-02-12 05:34:00,
2016-02-12 00:40:00,51.0,47.9,30.26,NNE,19,0.0,0.0,89,0.00,,,0.00,Wunderground v.1.15,2016-02-12 05:40:00,
2016-02-12 00:52:00,51.6,47.9,30.26,NW,319,0.0,0.0,87,0.00,,,0.00,Wunderground v.1.15,2016-02-12 05:52:00,
2016-02-12 00:57:00,51.5,47.8,30.26,NW,319,0.0,0.0,87,0.00,,,0.00,Wunderground v.1.15,2016-02-12 05:57:00,
2016-02-12 01:09:00,51.1,47.4,30.26,NW,319,0.0,0.0,87,0.00,,,0.00,Wunderground v.1.15,2016-02-12 06:09:00,
2016-02-12 01:21:00,50.4,46.7,30.26,NW,319,0.0,0.0,87,0.00,,,0.00,Wunderground v.1.15,2016-02-12 06:21:00,
2016-02-12 01:27:00,50.2,46.8,30.26,NW,319,0.0,0.0,88,0.00,,,0.00,Wunderground v.1.15,2016-02-12 06:27:00,
2016-02-12 01:33:00,50.3,47.2,30.26,NW,319,0.0,0.0,89,0.00,,,0.00,Wunderground v.1.15,2016-02-12 06:33:00,
2016-02-12 01:39:00,50.1,47.0,30.26,NW,319,0.0,0.0,89,0.00,,,0.00,Wunderground v.1.15,2016-02-12 06:39:00,
2016-02-12 01:45:00,50.0,46.9,30.26,NW,319,0.0,0.0,89,0.00,,,0.00,Wunderground v.1.15,2016-02-12 06:45:00,
2016-02-12 01:51:00,49.9,47.1,30.26,NW,319,0.0,0.0,90,0.00,,,0.00,Wunderground v.1.15,2016-02-12 06:51:00,
2016-02-12 01:57:00,49.8,47.0,30.25,NW,319,0.0,0.0,90,0.00,,,0.00,Wunderground v.1.15,2016-02-12 06:57:00,
2016-02-12 02:03:00,49.6,46.5,30.25,NW,319,0.0,0.0,89,0.00,,,0.00,Wunderground v.1.15,2016-02-12 07:03:00,
2016-02-12 02:08:00,49.4,46.3,30.25,NW,319,0.0,0.0,89,0.00,,,0.00,Wunderground v.1.15,2016-02-12 07:08:00,
2016-02-12 02:14:00,49.3,46.2,30.25,NW,319,0.0,0.0,89,0.00,,,0.00,Wunderground v.1.15,2016-02-12 07:14:00,
2016-02-12 02:20:00,49.6,46.5,30.25,NW,319,0.0,0.0,89,0.00,,,0.00,Wunderground v.1.15,2016-02-12 07:20:00,
2016-02-12 02:26:00,49.9,46.5,30.25,NW,318,0.0,0.0,88,0.00,,,0.00,Wunderground v.1.15,2016-02-12 07:26:00,
2016-02-12 02:32:00,50.1,46.4,30.25,NW,318,0.0,0.0,87,0.00,,,0.00,Wunderground v.1.15,2016-02-12 07:32:00,
2016-02-12 02:38:00,50.1,46.1,30.25,NW,313,0.0,0.0,86,0.00,,,0.00,Wunderground v.1.15,2016-02-12 07:38:00,
2016-02-12 02:43:00,50.0,45.7,30.24,NW,313,0.0,0.0,85,0.00,,,0.00,Wunderground v.1.15,2016-02-12 07:43:00,
2016-02-12 02:49:00,50.0,46.0,30.24,NW,313,0.0,0.0,86,0.00,,,0.00,Wunderground v.1.15,2016-02-12 07:49:00,
2016-02-12 02:54:00,50.1,45.8,30.24,NW,313,0.0,0.0,85,0.00,,,0.00,Wunderground v.1.15,2016-02-12 07:54:00,
2016-02-12 03:00:00,50.2,45.6,30.24,NW,313,0.0,0.0,84,0.00,,,0.00,Wunderground v.1.15,2016-02-12 08:00:00,
2016-02-12 03:06:00,50.1,45.5,30.24,NW,313,0.0,0.0,84,0.00,,,0.00,Wunderground v.1.15,2016-02-12 08:06:00,
2016-02-12 03:12:00,50.1,45.1,30.24,NW,313,0.0,0.0,83,0.00,,,0.00,Wunderground v.1.15,2016-02-12 08:12:00,
2016-02-12 03:18:00,50.3,45.0,30.24,NW,313,0.0,0.0,82,0.00,,,0.00,Wunderground v.1.15,2016-02-12 08:18:00,
2016-02-12 03:30:00,50.4,44.8,30.24,NW,314,0.0,0.0,81,0.00,,,0.00,Wunderground v.1.15,2016-02-12 08:30:00,
2016-02-12 03:36:00,50.3,45.0,30.24,NW,314,0.0,0.0,82,0.00,,,0.00,Wunderground v.1.15,2016-02-12 08:36:00,
2016-02-12 03:41:00,50.2,44.9,30.24,NW,313,0.0,0.0,82,0.00,,,0.00,Wunderground v.1.15,2016-02-12 08:41:00,
2016-02-12 03:46:00,50.3,44.7,30.24,NW,313,0.0,1.0,81,0.00,,,0.00,Wunderground v.1.15,2016-02-12 08:46:00,
2016-02-12 03:52:00,50.4,44.5,30.23,WNW,302,0.0,0.0,80,0.00,,,0.00,Wunderground v.1.15,2016-02-12 08:52:00,
2016-02-12 03:58:00,50.4,44.8,30.23,WNW,302,0.0,0.0,81,0.00,,,0.00,Wunderground v.1.15,2016-02-12 08:58:00,